Fort Campbell, TN

9:33 AM CST on February 08, 2016 (GMT -0600)
Outlaw

Weather History for KCKV - December, 2011

Change the Weather History Date:

Tuesday, December 27, 2011

  Actual Average Record
Temperature  
Mean Temperature 41 °F -  
Max Temperature 44 °F - 72 °F (2008)
Min Temperature 37 °F - 5 °F (1983)
Degree Days  
Heating Degree Days 24    
Month to date heating degree days 621  
Since 1 July heating degree days 1304  
Cooling Degree Days 0    
Month to date cooling degree days 0  
Moisture  
Dew Point 38 °F    
Average Humidity 83    
Maximum Humidity 100    
Minimum Humidity 65    
Precipitation  
Precipitation 0.50 in - 1.04 in (1990)
Month to date precipitation 5.96  
Sea Level Pressure  
Sea Level Pressure 29.78 in    
Wind  
Wind Speed 10 mph (West)    
Max Wind Speed 24 mph    
Max Gust Speed 33 mph    
Visibility 6 miles    
Events Rain    
T = Trace of Precipitation, MM = Missing Value Source: NWS Daily Summary

Daily Weather History Graph

Daily Weather History Graph

Search for Another Location

Airport or City:

Trip Planner

Search our weather history database for the weather conditions in past years. The results will help you decide how hot, cold, wet, or windy it might be!

Date:

Astronomy

Dec. 27, 2011 Rise Set
Actual Time 7:00 AM CST 4:40 PM CST
Civil Twilight 6:31 AM CST 5:09 PM CST
Nautical Twilight 5:59 AM CST 5:42 PM CST
Astronomical Twilight 5:27 AM CST 6:13 PM CST
Moon 9:00 AM CST (12/27) 8:08 PM CST (12/27)
Length of Visible Light 10h 37m
Length of Day
9h 40m
Waxing Crescent, 11% of the Moon is Illuminated
Dec 27
Waxing Crescent
Jan 1
First Quarter
Jan 9
Full
Jan 16
Last Quarter
Jan 23
New

Hourly Weather History & Observations

Time (CST) Temp. Windchill Dew Point Humidity Pressure Visibility Wind Dir Wind Speed Gust Speed Precip Events Conditions
12:13 AM 39.2 °F - 39.2 °F 100% 29.85 in 2.5 mi Calm Calm - 0.05 in Rain Rain
12:43 AM 39.2 °F - 39.2 °F 100% 29.82 in 4.0 mi Calm Calm - 0.12 in Rain Light Rain
12:52 AM 39.9 °F 35.8 °F 39.0 °F 97% 29.82 in 4.0 mi East 5.8 mph - 0.13 in Rain Light Rain
1:40 AM 39.2 °F 32.5 °F 39.2 °F 100% 29.73 in 4.0 mi East 10.4 mph - 0.08 in Rain Light Rain
2:15 AM 41.0 °F 39.0 °F 39.2 °F 93% 29.76 in 8.0 mi SE 3.5 mph - 0.00 in   Overcast
2:52 AM 41.0 °F - 41.0 °F 100% 29.73 in 3.0 mi Calm Calm - 0.01 in Rain Light Rain
3:03 AM 42.8 °F 41.1 °F 41.0 °F 93% 29.73 in 2.5 mi SE 3.5 mph - 0.00 in Rain Light Rain
3:36 AM 42.8 °F 41.1 °F 41.0 °F 93% 29.70 in 2.5 mi ESE 3.5 mph - 0.01 in   Overcast
3:52 AM 42.1 °F 38.4 °F 41.0 °F 96% 29.69 in 2.5 mi SE 5.8 mph - 0.01 in   Overcast
4:01 AM 42.8 °F 39.3 °F 41.0 °F 93% 29.67 in 2.0 mi SE 5.8 mph - N/A   Overcast
4:21 AM 42.8 °F - 42.8 °F 100% 29.67 in 2.5 mi Calm Calm - N/A   Overcast
4:39 AM 42.8 °F - 42.8 °F 100% 29.66 in 1.8 mi Calm Calm - 0.04 in Rain Light Rain
4:52 AM 42.1 °F - 42.1 °F 100% 29.66 in 1.8 mi Calm Calm - 0.06 in Rain Light Rain
4:57 AM 42.8 °F - 42.8 °F 100% 29.65 in 2.0 mi Calm Calm - 0.00 in Rain Light Rain
5:03 AM 42.8 °F - 42.8 °F 100% 29.65 in 1.8 mi Calm Calm - 0.00 in Rain Light Rain
5:10 AM 42.8 °F - 42.8 °F 100% 29.65 in 1.8 mi Calm Calm - 0.01 in Rain Light Rain
5:29 AM 42.8 °F 38.6 °F 42.8 °F 100% 29.65 in 3.0 mi SW 6.9 mph - 0.01 in   Overcast
5:52 AM 44.1 °F 38.6 °F 43.0 °F 96% 29.65 in 5.0 mi WSW 10.4 mph - 0.04 in Rain Light Rain
6:26 AM 42.8 °F 35.1 °F 41.0 °F 93% 29.65 in 9.0 mi WSW 16.1 mph - 0.01 in   Overcast
6:52 AM 42.1 °F 35.2 °F 39.9 °F 92% 29.67 in 3.0 mi WSW 12.7 mph 20.7 mph 0.02 in Rain Light Rain
7:03 AM 41.0 °F 30.9 °F 37.4 °F 87% 29.67 in 6.0 mi West 24.2 mph 33.4 mph 0.00 in Rain Light Rain
7:10 AM 39.2 °F 29.0 °F 37.4 °F 93% 29.67 in 7.0 mi West 21.9 mph 33.4 mph 0.02 in Rain Rain
7:17 AM 39.2 °F 30.5 °F 37.4 °F 93% 29.68 in 4.0 mi West 16.1 mph 27.6 mph 0.04 in Rain Rain
7:45 AM 39.2 °F 31.6 °F 37.4 °F 93% 29.69 in 6.0 mi West 12.7 mph - 0.09 in Rain Light Rain
7:52 AM 39.0 °F 31.8 °F 37.0 °F 93% 29.70 in 7.0 mi West 11.5 mph - 0.10 in Rain Light Rain
8:49 AM 39.2 °F 30.8 °F 37.4 °F 93% 29.72 in 7.0 mi West 15.0 mph 21.9 mph 0.02 in Rain Light Rain
8:52 AM 39.0 °F 29.6 °F 37.0 °F 93% 29.73 in 5.0 mi West 18.4 mph 27.6 mph 0.02 in Rain Light Rain
9:52 AM 37.0 °F 28.5 °F 35.1 °F 93% 29.76 in 10.0 mi West 13.8 mph - 0.04 in Rain Light Rain
10:10 AM 37.4 °F 28.2 °F 33.8 °F 87% 29.77 in 10.0 mi West 16.1 mph 24.2 mph 0.00 in   Overcast
10:52 AM 37.0 °F 28.5 °F 34.0 °F 89% 29.79 in 10.0 mi West 13.8 mph 21.9 mph 0.00 in   Overcast
11:52 AM 37.0 °F 28.9 °F 35.1 °F 93% 29.78 in 10.0 mi West 12.7 mph 23.0 mph N/A   Overcast
12:03 PM 37.4 °F 28.9 °F 35.6 °F 93% 29.78 in 10.0 mi WSW 13.8 mph - N/A   Overcast
12:52 PM 37.9 °F 28.9 °F 36.0 °F 93% 29.80 in 10.0 mi West 16.1 mph 21.9 mph N/A   Overcast
1:33 PM 39.2 °F 31.6 °F 35.6 °F 87% 29.80 in 10.0 mi West 12.7 mph 19.6 mph N/A   Overcast
1:52 PM 39.0 °F 31.8 °F 36.0 °F 89% 29.81 in 10.0 mi West 11.5 mph 20.7 mph N/A   Overcast
2:06 PM 39.2 °F 30.8 °F 35.6 °F 87% 29.81 in 10.0 mi West 15.0 mph - N/A   Overcast
2:52 PM 41.0 °F 34.3 °F 36.0 °F 82% 29.85 in 10.0 mi West 11.5 mph - N/A   Overcast
3:19 PM 41.0 °F 35.8 °F 35.6 °F 81% 29.85 in 10.0 mi WSW 8.1 mph - N/A   Overcast
3:52 PM 41.0 °F 38.0 °F 37.0 °F 86% 29.87 in 10.0 mi WSW 4.6 mph - N/A   Overcast
4:52 PM 42.1 °F 38.4 °F 37.0 °F 82% 29.90 in 10.0 mi WSW 5.8 mph - N/A   Overcast
5:52 PM 43.0 °F 35.7 °F 37.9 °F 82% 29.95 in 10.0 mi NW 15.0 mph 25.3 mph 0.00 in   Overcast
6:52 PM 43.0 °F 35.1 °F 34.0 °F 71% 29.98 in 10.0 mi NW 17.3 mph 23.0 mph N/A   Overcast
8:52 PM 41.0 °F 33.5 °F 30.0 °F 65% 30.04 in 10.0 mi NW 13.8 mph - N/A   Overcast
9:52 PM 39.9 °F 34.5 °F 30.9 °F 70% 30.07 in 10.0 mi NNW 8.1 mph - N/A   Overcast
10:52 PM 39.0 °F 32.3 °F 30.9 °F 73% 30.07 in 10.0 mi NNW 10.4 mph - N/A   Overcast
11:52 PM 37.0 °F 32.4 °F 30.0 °F 76% 30.08 in 10.0 mi NW 5.8 mph - N/A   Mostly Cloudy